Terminal Aerodrome Forecast
Issued by NWS Cleveland, OH

Home | Current Version | Previous Version | Graphics & Text | Print | Product List | Glossary On
Versions: 1 2 3 4 5 6 7 8 9 10 11 12 13 14 15 16 17 18 19
000
FTUS41 KCLE 250500
TAFTOL
TAF
KTOL 250520Z 2506/2606 05006KT P6SM -RA OVC050
     FM251000 06005KT P6SM OVC080
     FM251400 08012KT P6SM OVC040
     FM252200 05012KT P6SM SCT040 BKN120
     FM260200 04008KT P6SM SCT120 BKN250=

USA.gov is the U.S. government's official web portal to all federal, state and local government web resources and services.